Location: Matrei
(47.1333°N, 11.4500°E)
Time: 08:36:23
(UTC+00:00)

BREEZE-M R/B - Pass Details

Date: 07 June 2020
Orbit: 311 x 4533 km, 49.7° (Epoch: 14 July)

Event Time Altitude Azimuth Distance (km) Brightness Sun altitude
Rises 00:28:22 0° 269° (W) 4,330 7.2 -18.1°
Reaches altitude 10° 00:32:14 10° 273° (W) 2,728 6.2 -17.8°
Maximum altitude 00:37:54 60° 353° (N) 649 3.4 -17.5°
Drops below altitude 10° 00:40:59 10° 76° (ENE) 1,492 5.5 -17.3°
Sets 00:42:35 0° 80° (E) 2,196 6.3 -17.2°
